Location: Ash Observatory
(39.7321°N, 75.2004°W)
Time: 14:41:25
(UTC-04:00)

ISS - Pass Details

Date: 30 March 2019
Orbit: 408 x 410 km, 51.6° (Epoch: 25 April)

Event Time Altitude Azimuth Distance (km) Brightness Sun altitude
Rises 20:26:26 0° 305° (NW) 2,336 1.5 -12.8°
Reaches altitude 10° 20:30:06 10° 348° (NNW) 1,474 -0.6 -13.5°
Maximum altitude 20:30:50 11° 1° (N) 1,442 -0.8 -13.6°
Drops below altitude 10° 20:31:34 10° 14° (NNE) 1,474 -0.9 -13.8°
Enters shadow 20:33:30 - 41° (NE) 1,822 -0.8 -14.1°
